FW3067 Weather Reports


Display with metric or nautical units.
time (UTC)temp
F
wind
direction
speed
MPH
gust
MPH
rain 1hr
in
rain 24hr
in
rain mn
in
humidity
%
barometer
mb
20260906231558 56 342 7.0 12.0 0.00 0.09 0.06 97 1001.1
20260906230106 57 4 6.0 10.0 0.00 0.09 0.06 96 1001.2
20260906224557 57 354 6.0 9.0 0.00 0.11 0.06 97 1001.1
20260906223155 57 359 5.0 9.0 0.00 0.11 0.06 97 1001.1
20260906221552 57 346 7.0 14.0 0.00 0.11 0.06 97 1001.1
20260906220052 57 348 5.0 9.0 0.00 0.11 0.06 96 1001.1
20260906214550 57 13 4.0 9.0 0.00 0.12 0.06 96 1001.1
20260906213056 58 26 8.0 14.0 0.00 0.12 0.06 95 1001.0
20260906211550 58 355 7.0 12.0 0.00 0.12 0.06 96 1001.1
20260906210049 58 63 9.0 16.0 0.00 0.12 0.06 95 1001.2
20260906204555 58 26 9.0 17.0 0.00 0.13 0.06 96 1001.0
20260906203048 58 21 12.0 17.0 0.00 0.13 0.06 96 1000.9
20260906201613 57 28 11.0 17.0 0.00 0.13 0.06 97 1000.9
20260906200046 57 19 11.0 22.0 0.00 0.13 0.06 97 1000.8
20260906194555 57 43 15.0 24.0 0.01 0.13 0.06 97 1000.8
20260906193046 57 33 18.0 25.0 0.01 0.13 0.06 98 1000.9
20260906191544 57 22 16.0 24.0 0.01 0.13 0.06 98 1000.9
20260906190044 56 49 19.0 25.0 0.01 0.13 0.06 98 1000.8
20260906184543 57 26 18.0 28.0 0.00 0.12 0.05 97 1000.9
20260906183050 57 30 14.0 26.0 0.00 0.12 0.05 97 1000.9
20260906181548 57 78 18.0 26.0 0.00 0.12 0.05 97 1001.1
20260906180042 57 34 17.0 26.0 0.01 0.12 0.05 97 1001.1
20260906174544 57 22 17.0 27.0 0.01 0.12 0.05 96 1001.2
20260906173039 57 22 19.0 26.0 0.01 0.12 0.05 97 1001.4
20260906171541 56 29 19.0 27.0 0.01 0.12 0.05 97 1001.5
20260906170038 57 36 19.0 29.0 0.01 0.11 0.04 97 1001.6
20260906164537 57 40 17.0 27.0 0.01 0.12 0.04 97 1001.5
20260906163047 57 52 13.0 28.0 0.01 0.12 0.04 98 1001.5
20260906161545 56 44 21.0 28.0 0.01 0.12 0.04 98 1001.5
20260906160035 57 30 18.0 27.0 0.01 0.11 0.03 97 1001.7
20260906154537 56 32 15.0 27.0 0.01 0.12 0.03 99 1001.6
20260906153033 56 47 15.0 24.0 0.01 0.12 0.03 98 1001.6
20260906151535 56 50 16.0 30.0 0.01 0.12 0.03 98 1001.7
20260906150033 59 36 16.0 27.0 0.00 0.11 0.02 94 1001.7
20260906144531 58 54 17.0 30.0 0.00 0.12 0.02 94 1001.6
20260906143030 58 49 18.0 29.0 0.00 0.12 0.02 95 1001.8
20260906141530 59 44 15.0 28.0 0.00 0.12 0.02 95 1001.7
20260906140036 57 48 16.0 31.0 0.00 0.12 0.02 97 1001.9
20260906134527 58 21 13.0 26.0 0.00 0.12 0.02 95 1001.8
20260906133036 58 44 22.0 33.0 0.00 0.12 0.02 93 1001.9
20260906131524 57 29 18.0 30.0 0.01 0.12 0.02 96 1001.7
20260906130021 57 37 19.0 34.0 0.01 0.12 0.02 97 1001.7
20260906124521 56 45 24.0 39.0 0.01 0.13 0.02 98 1001.6
20260906123033 55 40 18.0 30.0 0.00 0.12 0.02 99 1001.5
20260906121516 55 48 19.0 32.0 0.01 0.12 0.02 99 1001.5
20260906120015 56 43 19.0 33.0 0.01 0.12 0.02 97 1001.4
20260906114520 55 9 22.0 35.0 0.01 0.17 0.02 97 1001.4
20260906113013 56 31 19.0 31.0 0.01 0.17 0.02 97 1001.6
20260906111511 56 22 19.0 28.0 0.00 0.16 0.01 97 1001.5
20260906110009 56 57 19.0 32.0 0.00 0.28 0.01 98 1001.4
20260906104506 56 38 23.0 35.0 0.00 0.28 0.01 99 1001.3
20260906103006 56 28 22.0 37.0 0.00 0.28 0.01 98 1001.1
20260906101505 56 46 26.0 37.0 0.00 0.28 0.01 98 1001.1
20260906100003 56 82 24.0 39.0 0.00 0.46 0.01 98 1001.0
20260906094502 56 70 22.0 40.0 0.00 0.46 0.01 98 1000.9
20260906093003 56 76 24.0 36.0 0.00 0.46 0.01 99 1000.9
20260906091603 56 42 18.0 35.0 0.00 0.46 0.01 99 1000.8
20260906090113 56 69 21.0 39.0 0.00 0.46 0.01 99 1000.7
20260906084608 56 57 25.0 38.0 0.00 0.72 0.01 99 1000.6
20260906083056 56 53 22.0 33.0 0.00 0.72 0.01 100 1000.6
20260906081557 56 78 22.0 33.0 0.00 0.72 0.01 100 1000.6
20260906080056 56 40 22.0 37.0 0.00 0.72 0.01 100 1000.5
20260906074603 56 50 20.0 38.0 0.00 1.13 0.01 100 1000.6
20260906073058 56 60 23.0 36.0 0.00 1.13 0.01 100 1000.5
20260906071552 56 48 22.0 33.0 0.00 1.13 0.01 100 1000.3
20260906070109 56 50 21.0 32.0 0.00 1.13 0.01 100 1000.4
20260906064551 57 43 22.0 38.0 0.00 2.04 0.01 100 1000.3
20260906063049 57 27 24.0 37.0 0.00 2.04 0.01 100 1000.2
20260906061601 57 53 23.0 38.0 0.00 2.04 0.01 100 1000.3
20260906060048 57 40 22.0 37.0 0.00 2.04 0.01 100 1000.5
20260906054546 57 48 22.0 38.0 0.00 2.86 0.01 100 1000.4
20260906053050 57 37 22.0 34.0 0.00 2.86 0.01 100 1000.6
20260906051544 56 34 28.0 39.0 0.00 2.86 0.01 100 1000.5
20260906050104 56 53 28.0 39.0 0.01 2.86 0.01 100 1000.5
20260906044541 56 31 23.0 37.0 0.01 3.30 0.01 100 1000.7
20260906043048 57 64 24.0 40.0 0.01 3.30 0.01 100 1000.7
20260906041538 56 45 25.0 38.0 0.01 3.30 0.01 100 1000.5
20260906040043 56 29 19.0 36.0 0.00 3.29 0.00 100 1000.8
20260906034535 56 61 23.0 41.0 0.00 3.56 0.00 100 1001.0
20260906033033 56 72 24.0 40.0 0.00 3.56 0.00 100 1001.1
20260906031531 56 44 23.0 37.0 0.01 3.56 0.00 100 1001.3
20260906030030 56 56 26.0 40.0 0.01 3.56 0.00 100 1001.4
20260906024530 56 53 26.0 40.0 0.01 3.82 3.56 100 1001.2
20260906023029 56 60 26.0 40.0 0.02 3.82 3.56 100 1001.2
20260906021528 56 46 26.0 42.0 0.01 3.81 3.55 100 1001.2
20260906020027 56 69 25.0 42.0 0.01 3.81 3.55 100 1001.5
20260906014540 56 68 27.0 41.0 0.02 3.96 3.55 100 1001.5
20260906013025 57 69 27.0 41.0 0.02 3.95 3.54 100 1001.7
20260906011526 56 73 25.0 39.0 0.02 3.95 3.54 100 1001.7
20260906010024 56 57 27.0 40.0 0.02 3.95 3.54 100 1001.5
20260906004522 56 19 25.0 37.0 0.01 4.26 3.54 100 1001.5
20260906003022 57 61 26.0 41.0 0.01 4.25 3.53 100 1001.7
20260906001521 57 20 20.0 35.0 0.01 4.25 3.53 100 1001.8
20260906000020 57 61 23.0 44.0 0.01 4.25 3.53 100 1001.8
20260905234621 57 56 29.0 45.0 0.01 4.28 3.53 100 1001.6
20260905233021 57 28 23.0 33.0 0.01 4.28 3.52 100 1001.7